Vertical_Velocity
1 1 0 -1 -1 -1 -1 -3 -2 -1 -1 -0 -1 0 0 1 -1 -2 -1 1 -0 -1 -2 -1 1 2 1 2 0 2 1 1 -1 1 -2 -1 -1 -0 -0 -1 -1 -2 -1
-6 -1 -1 -1 -2 -2 -1 -2 -2 -2 -1 -1 -0 -1 -2 -0 1 1 1 0 -1 -1 -0 -0 1 -0 2 3 0 -0 1 -2 -2 -1 -0 1 0 -0 -0 0 -1 -1 -0
-1 -0 -0 -2 -2 -2 -1 -1 -1 -1 -1 0 -1 -1 0 -1 -0 2 -0 -1 -1 -0 -0 -0 -1 0 0 1 2 1 -0 -1 -2 -2 0 0 -0 -1 0 1 -2 -2 1
-1 1 -1 -0 -3 -2 -1 -1 -1 -2 -2 -1 0 0 0 -1 0 1 -0 -2 0 1 -1 -2 -0 0 1 -1 0 -0 -1 -0 1 1 2 -1 -1 1 1 0 1 0 0
3 2 0 -3 -2 -3 -1 -2 -2 -3 -3 -3 -2 0 1 2 2 0 -1 -3 4 -0 3 2 -1 -4 2 0 -2 -1 -3 3 1 1 -0 -2 1 -0 -0 -0 -1 0 -1
-1 1 2 -1 -2 -1 -3 -1 -1 -1 -2 -3 -2 -4 0 -3 2 -0 -1 6 2 0 3 4 -1 -2 -2 -0 0 -4 3 1 2 3 -3 2 -2 1 -1 -1 -1 -1 -1
-5 -5 0 -2 -3 -3 -2 -2 -2 -2 -1 -3 -2 2 2 0 1 1 2 -0 0 3 6 3 -1 -1 1 0 -2 0 0 -1 -0 3 1 0 -2 -1 -1 0 -0 2 -0
-4 -5 1 -1 -1 -3 -2 -3 -1 -2 -3 -0 -4 2 3 -2 0 -0 11 9 13 11 13 1 2 -2 0 -2 -4 2 -0 1 3 3 -1 2 -0 -0 1 0 0 1 0
-2 -2 -1 -1 -1 -2 -4 -2 -1 -3 -3 -4 -2 2 -1 4 -4 2 -2 5 147 102 8 14 -1 -2 -3 -3 -1 -1 -0 2 1 5 2 -2 -0 1 -1 -2 0 0 1
0 -2 1 -4 -3 0 -4 -2 -2 -4 -2 -3 -4 2 0 -3 2 4 -3 -4 16 36 10 5 4 -3 -0 1 1 5 -3 -3 -3 1 -1 -2 -1 -1 1 -0 0 0 -0
1 -0 2 -5 -3 -2 0 -3 -2 -4 -2 -2 -2 1 -1 -1 0 6 -4 2 -4 7 30 9 11 4 3 0 3 4 -4 -0 -3 5 -1 -3 -1 1 0 -0 1 -1 0
7 -2 1 -3 0 -1 -2 -1 -2 -3 -2 -3 -1 1 -0 -3 1 3 -1 -0 2 14 14 8 1 -1 4 0 1 2 0 6 3 10 -3 -1 2 -0 1 0 -0 -0 0
-2 -5 6 -3 0 -1 -1 -3 -4 -0 -2 -2 -1 1 -1 1 -1 1 -1 1 3 -7 6 17 7 3 -1 2 3 -2 -3 -3 1 11 -6 1 2 0 1 1 1 0 0
-3 3 -2 -1 2 -2 -2 -1 -3 2 -4 1 -1 -1 -1 -0 2 2 -0 -1 -0 -1 -6 1 -2 -0 -1 -0 1 -3 1 -11 3 8 -2 0 -1 -0 0 2 0 -0 -1
-7 1 -6 10 1 -3 -1 2 -4 -3 -0 3 -0 1 -1 -0 4 0 1 -2 2 3 3 -7 -5 0 -1 -1 -1 3 0 -8 -2 6 -4 1 -2 -1 -1 -1 -1 -1 -1
1 -9 -3 5 2 2 -1 -0 -1 -8 2 -0 -0 -1 1 0 4 2 3 -0 0 1 -1 1 -2 1 -2 10 7 -0 -2 -7 2 8 -4 -1 1 0 -0 -2 0 -1 -1
2 -1 -6 3 -0 4 0 1 1 -7 -2 1 -0 -3 -1 2 1 2 2 1 3 -1 1 1 2 4 5 11 3 -2 1 1 -8 12 -4 -1 2 1 1 0 1 -1 -1
-1 6 -13 7 -2 3 -0 1 -1 1 3 -1 -1 -1 -3 -0 -1 -0 0 0 -3 1 -1 0 1 -1 5 9 -3 -2 3 -0 -4 6 -2 3 1 -2 1 0 0 -1 -1
-3 1 -13 8 3 -2 -3 2 -4 -2 1 2 -1 -1 2 -3 -2 -3 -2 1 -4 0 1 1 5 5 11 3 0 -3 3 -2 -2 -2 -1 -1 4 -3 -0 0 1 1 -1
2 -10 -6 2 10 -5 2 -3 -1 -3 0 1 -1 -2 0 -2 -2 2 -1 -1 -1 -0 -0 2 12 9 9 6 -1 0 -2 -1 -2 -1 4 -3 3 2 2 1 1 -1 -0
-1 -5 3 1 6 1 3 -5 -0 -0 1 -0 1 0 1 -0 0 2 2 -0 -1 -2 0 -0 -1 5 11 1 -4 4 0 1 -1 3 4 0 -0 1 2 0 0 -1 -1
-5 3 -3 1 2 -3 4 -5 -1 1 2 -1 -3 1 2 2 -0 -1 1 1 -2 -2 -0 2 2 3 6 -5 2 3 -2 0 0 2 -0 1 3 -2 3 -2 -0 0 -1
-2 4 -1 9 0 2 -3 -1 -1 2 1 -1 1 2 -1 1 0 1 0 -0 -0 -4 3 5 2 -0 9 -3 5 1 -0 4 -1 -2 1 0 1 -1 -1 2 -1 -1 -1
4 -2 -4 -0 3 1 -4 -0 1 2 -0 -0 1 -1 1 0 0 1 -1 -0 0 -2 -1 5 -0 -2 8 2 1 1 7 1 1 0 2 -0 -0 -0 1 -1 -1 1 2
4 -0 -1 -1 -4 2 -1 1 3 3 -1 1 3 -1 4 -2 -3 -0 1 0 -2 -3 9 3 -1 2 6 8 1 3 3 2 -3 -0 1 2 3 2 -0 -1 -2 0 1
3 -4 -1 -4 3 2 -2 4 1 2 2 1 3 0 2 -2 -3 -3 0 1 -0 1 6 2 5 2 -1 1 1 7 0 -2 -1 1 1 1 0 2 -1 1 1 -1 -1
Height
5838 5837 5836 5835 5833 5833 5832 5831 5830 5829 5828 5828 5827 5827 5827 5826 5825 5824 5824 5824 5824 5823 5824 5824 5825 5827 5830 5832 5833 5835 5835 5837 5839 5840 5842 5843 5844 5845 5847 5848 5849 5851 5851
5834 5834 5833 5832 5830 5829 5828 5827 5826 5826 5825 5825 5824 5823 5822 5822 5821 5820 5819 5819 5820 5820 5819 5819 5821 5822 5824 5826 5828 5830 5832 5834 5836 5837 5838 5840 5842 5843 5845 5846 5848 5848 5849
5829 5830 5829 5828 5827 5826 5825 5823 5822 5821 5821 5821 5820 5819 5818 5818 5817 5816 5815 5815 5815 5815 5815 5816 5817 5819 5821 5823 5824 5826 5828 5831 5833 5834 5836 5837 5839 5841 5842 5844 5846 5846 5846
5824 5825 5825 5823 5822 5821 5821 5820 5819 5817 5816 5816 5815 5814 5814 5813 5812 5812 5811 5812 5810 5810 5810 5811 5812 5813 5815 5817 5819 5822 5824 5827 5830 5831 5833 5835 5837 5839 5840 5842 5843 5844 5845
5818 5820 5820 5818 5817 5816 5816 5815 5814 5813 5812 5812 5811 5810 5809 5809 5807 5808 5808 5807 5805 5805 5806 5807 5807 5810 5812 5813 5815 5817 5821 5825 5827 5829 5831 5833 5835 5837 5839 5840 5841 5843 5844
5812 5813 5814 5813 5812 5811 5811 5810 5810 5809 5808 5807 5807 5806 5805 5803 5803 5803 5802 5801 5801 5801 5802 5802 5803 5805 5807 5809 5811 5814 5818 5821 5823 5826 5828 5830 5833 5834 5836 5838 5840 5841 5842
5806 5806 5808 5808 5807 5805 5805 5805 5805 5804 5803 5802 5801 5800 5799 5798 5798 5798 5797 5795 5795 5796 5794 5796 5798 5801 5802 5805 5808 5811 5815 5817 5819 5821 5825 5828 5831 5833 5835 5836 5837 5839 5840
5800 5800 5801 5801 5801 5799 5799 5798 5798 5797 5797 5795 5795 5794 5793 5792 5791 5791 5792 5789 5785 5786 5785 5788 5791 5795 5798 5801 5804 5808 5810 5813 5817 5819 5821 5825 5828 5831 5833 5834 5836 5837 5838
5795 5794 5795 5795 5794 5793 5793 5791 5791 5790 5790 5789 5788 5787 5786 5786 5785 5788 5786 5780 5770 5780 5782 5783 5785 5791 5795 5797 5801 5804 5807 5810 5813 5815 5819 5823 5825 5828 5830 5832 5833 5835 5835
5788 5788 5789 5789 5788 5787 5786 5784 5784 5784 5782 5781 5781 5781 5779 5781 5781 5782 5781 5780 5781 5773 5779 5783 5783 5786 5790 5793 5796 5801 5804 5809 5812 5815 5818 5820 5822 5824 5825 5828 5831 5832 5834
5781 5781 5782 5783 5781 5779 5778 5777 5777 5777 5775 5774 5773 5774 5773 5775 5776 5776 5777 5774 5774 5775 5774 5780 5783 5785 5787 5789 5792 5798 5801 5804 5809 5812 5813 5815 5818 5820 5822 5825 5827 5829 5831
5775 5775 5776 5776 5774 5773 5772 5771 5770 5770 5769 5768 5767 5767 5767 5768 5770 5770 5772 5770 5771 5771 5773 5776 5780 5783 5786 5788 5790 5793 5794 5797 5806 5807 5808 5809 5814 5816 5819 5822 5824 5826 5828
5766 5768 5770 5768 5767 5766 5766 5765 5764 5764 5764 5762 5762 5760 5761 5763 5765 5766 5767 5769 5767 5767 5769 5773 5777 5780 5783 5785 5787 5790 5790 5792 5802 5805 5803 5807 5810 5813 5816 5818 5821 5823 5825
5759 5760 5762 5761 5760 5759 5758 5759 5758 5759 5759 5757 5756 5755 5757 5758 5760 5761 5763 5764 5762 5764 5765 5768 5771 5775 5779 5780 5782 5785 5788 5786 5797 5802 5802 5806 5808 5809 5812 5815 5817 5820 5821
5749 5751 5753 5754 5754 5752 5752 5754 5752 5752 5753 5751 5750 5750 5751 5753 5755 5757 5758 5759 5760 5761 5762 5761 5765 5770 5773 5776 5777 5781 5784 5782 5792 5798 5799 5803 5806 5808 5809 5812 5815 5816 5818
5741 5741 5744 5746 5746 5746 5746 5747 5746 5745 5746 5745 5744 5745 5745 5748 5750 5751 5754 5754 5755 5756 5757 5759 5761 5764 5767 5771 5774 5777 5779 5779 5790 5792 5794 5799 5802 5805 5807 5809 5811 5812 5814
5734 5734 5734 5738 5739 5740 5740 5741 5740 5739 5739 5737 5738 5738 5739 5742 5744 5745 5748 5750 5751 5752 5753 5754 5756 5758 5761 5766 5770 5774 5776 5779 5780 5790 5789 5795 5798 5801 5804 5805 5806 5807 5810
5724 5725 5725 5731 5732 5732 5733 5735 5734 5735 5734 5732 5732 5732 5733 5736 5738 5739 5742 5743 5745 5747 5748 5749 5751 5754 5756 5761 5765 5770 5773 5774 5776 5784 5786 5792 5795 5798 5800 5800 5802 5803 5804
5714 5715 5716 5724 5726 5725 5727 5729 5729 5728 5727 5727 5727 5726 5727 5729 5732 5733 5735 5737 5737 5740 5741 5742 5744 5748 5751 5755 5761 5764 5768 5769 5772 5778 5784 5787 5791 5793 5795 5796 5798 5799 5800
5704 5706 5709 5715 5718 5718 5722 5723 5723 5722 5721 5721 5722 5721 5722 5724 5725 5728 5729 5730 5731 5734 5736 5737 5740 5743 5746 5750 5755 5759 5763 5766 5768 5773 5780 5781 5785 5788 5790 5790 5793 5794 5795
5695 5697 5704 5708 5711 5713 5717 5716 5717 5717 5716 5716 5718 5718 5719 5719 5720 5720 5722 5724 5726 5728 5730 5732 5734 5738 5741 5745 5750 5756 5759 5762 5765 5769 5775 5777 5779 5782 5785 5785 5787 5789 5791
5688 5690 5695 5700 5704 5707 5710 5710 5712 5711 5711 5712 5712 5714 5714 5714 5713 5712 5714 5716 5718 5722 5724 5728 5730 5734 5737 5741 5747 5750 5754 5758 5762 5765 5768 5770 5773 5776 5779 5779 5781 5784 5785
5680 5683 5688 5694 5698 5701 5704 5705 5707 5705 5706 5708 5708 5709 5708 5707 5706 5706 5707 5709 5711 5714 5719 5722 5725 5729 5732 5735 5742 5745 5749 5753 5754 5758 5761 5763 5766 5768 5771 5774 5775 5778 5779
5675 5676 5681 5687 5691 5696 5698 5700 5702 5701 5702 5703 5704 5704 5704 5703 5700 5700 5700 5702 5704 5708 5711 5715 5719 5723 5727 5731 5736 5740 5743 5747 5750 5752 5755 5758 5760 5763 5766 5768 5770 5771 5774
5667 5670 5675 5681 5686 5690 5693 5696 5696 5697 5699 5699 5700 5700 5700 5697 5695 5694 5694 5696 5697 5700 5704 5709 5713 5718 5721 5726 5730 5734 5737 5741 5743 5747 5750 5752 5757 5758 5760 5762 5765 5766 5767
5660 5664 5669 5675 5678 5684 5688 5691 5691 5693 5695 5695 5696 5696 5694 5692 5691 5687 5687 5688 5691 5694 5697 5704 5709 5713 5716 5721 5725 5730 5732 5734 5738 5742 5744 5748 5751 5752 5754 5757 5758 5759 5759